This demonstration page uses our WeatherBlox Daily Observations layout. Learn more.

Left ArrowRight Arrow

41.12389, -100.76542

Hourly Observations for July 16, 2018

Temp ( °F °C ) Dew Point ( °F °C ) Humidity (%) Winds ( mph kmh ) Pressure ( in mb ) Visibility ( mi km ) Precip ( " mm )
12:53 am 00:53 Clear 67 19.4 66 18.9 97 97 ENE 3 6 30.09 1019 10 16 0.00 0.00
1:53 am 01:53 Clear 64 17.8 64 17.8 100 100 Calm 30.09 1019 10 16 0.00 0.00
2:53 am 02:53 Clear 63 17.2 63 17.2 100 100 SE 3 6 30.08 1019 8 13 0.00 0.00
3:53 am 03:53 Clear 63 17.2 63 17.2 100 100 Calm 30.07 1018 10 16 0.00 0.00
4:16 am 04:16 Mostly Cloudy 64 17.8 64 17.8 100 100 ESE 3 6 30.09 1019 10 16 0.00 0.00
4:53 am 04:53 Cloudy 64 17.8 64 17.8 100 100 ENE 3 6 30.07 1018 9 14 0.00 0.00
5:53 am 05:53 Cloudy 65 18.3 65 18.3 100 100 Calm 30.08 1019 10 16 0.00 0.00
6:53 am 06:53 Cloudy 66 18.9 66 18.9 100 100 SSE 3 6 30.08 1019 10 16 0.00 0.00
7:20 am 07:20 Mostly Cloudy 65 18.3 65 18.3 100 100 ESE 3 6 30.06 1018 10 16 0.00 0.00
7:31 am 07:31 Mostly Cloudy 66 18.9 66 18.9 100 100 E 5 7 30.06 1018 10 16 0.00 0.00
7:53 am 07:53 Cloudy 67 19.4 65 18.3 93 93 E 3 6 30.10 1019 10 16 0.00 0.00
8:53 am 08:53 Cloudy 70 21.1 65 18.3 84 84 Calm 30.11 1020 10 16 0.00 0.00
9:45 am 09:45 Cloudy 73 22.8 66 18.9 79 79 VRB 3 6 30.03 1017 10 16 0.00 0.00
9:53 am 09:53 Cloudy 73 22.8 67 19.4 81 81 Calm 30.11 1020 10 16 0.00 0.00
10:53 am 10:53 Sunny 79 26.1 70 21.1 74 74 VRB 5 7 30.09 1019 10 16 0.00 0.00
11:53 am 11:53 Sunny 81 27.2 71 21.7 72 72 Calm 30.08 1019 10 16 0.00 0.00
12:53 pm 12:53 Sunny 84 28.9 71 21.7 65 65 VRB 5 7 30.06 1018 10 16 0.00 0.00
1:53 pm 13:53 Sunny 87 30.6 70 21.1 57 57 SSE 5 7 30.05 1018 10 16 0.00 0.00
2:53 pm 14:53 Sunny 89 31.7 68 20 50 50 SE 6 9 30.03 1017 10 16 0.00 0.00
3:53 pm 15:53 Sunny 90 32.2 70 21.1 52 52 ENE 5 7 30.02 1017 10 16 0.00 0.00
4:53 pm 16:53 Sunny 90 32.2 69 20.6 50 50 E 7 11 30.00 1016 10 16 0.00 0.00
5:53 pm 17:53 Sunny 90 32.2 71 21.7 54 54 SE 8 13 29.98 1015 10 16 0.00 0.00
6:32 pm 18:32 Sunny with Nearby Thunderstorms 89 31.7 72 22.2 57 57 SSE 10 17 29.85 1011 10 16 0.00 0.00
6:53 pm 18:53 Sunny 88 31.1 72 22.2 59 59 SSE 10 17 29.96 1015 10 16 0.00 0.00
7:53 pm 19:53 Sunny 85 29.4 73 22.8 68 68 SSE 9 15 29.97 1015 10 16 0.00 0.00
8:53 pm 20:53 Sunny 81 27.2 73 22.8 77 77 SE 10 17 29.97 1015 10 16 0.00 0.00
9:53 pm 21:53 Clear 79 26.1 73 22.8 82 82 SSE 12 19 30.00 1016 10 16 0.00 0.00
10:53 pm 22:53 Clear 75 23.9 73 22.8 94 94 ESE 8 13 30.03 1017 10 16 0.00 0.00
11:53 pm 23:53 Clear 76 24.4 73 22.8 91 91 SE 7 11 29.97 1015 10 16 0.00 0.00

Powered by AerisWeather